| time (UTC) | temp C | wind direction | speed KPH | gust KPH | rain 1hr cm | rain 24hr cm | rain mn cm | humidity % | barometer mb |
| 20260904023025 | 20 | 307 | 0.0 | 9.7 | 0.00 | 0.00 | 0.00 | 75 | 1012.1 |
| 20260904021534 | 20 | 304 | 3.2 | 12.9 | 0.00 | 0.00 | 0.00 | 71 | 1012.2 |
| 20260904020024 | 20 | 275 | 4.8 | 12.9 | 0.00 | 0.00 | 0.00 | 70 | 1012.0 |
| 20260904014523 | 21 | 280 | 0.0 | 12.9 | 0.00 | 0.00 | 0.00 | 70 | 1012.1 |
| 20260904013024 | 21 | 292 | 4.8 | 9.7 | 0.00 | 0.00 | 0.00 | 70 | 1012.2 |
| 20260904011522 | 21 | 292 | 3.2 | 14.5 | 0.00 | 0.00 | 0.00 | 69 | 1012.2 |
| 20260904010021 | 21 | 242 | 6.4 | 11.3 | 0.00 | 0.00 | 0.00 | 69 | 1012.2 |
| 20260904004519 | 21 | 261 | 3.2 | 16.1 | 0.00 | 0.00 | 0.00 | 68 | 1012.4 |
| 20260904003019 | 22 | 232 | 6.4 | 17.7 | 0.00 | 0.00 | 0.00 | 67 | 1012.4 |
| 20260904001522 | 22 | 281 | 8.0 | 17.7 | 0.00 | 0.00 | 0.00 | 66 | 1012.4 |
| 20260904000019 | 22 | 190 | 3.2 | 16.1 | 0.00 | 0.00 | 0.00 | 66 | 1012.3 |
| 20260903234516 | 22 | 290 | 6.4 | 27.4 | 0.00 | 0.00 | 0.00 | 65 | 1012.3 |
| 20260903233015 | 23 | 165 | 4.8 | 17.7 | 0.00 | 0.00 | 0.00 | 63 | 1012.5 |
| 20260903231512 | 23 | 205 | 9.7 | 24.1 | 0.00 | 0.00 | 0.00 | 62 | 1012.6 |
| 20260903230013 | 23 | 258 | 9.7 | 22.5 | 0.00 | 0.00 | 0.00 | 62 | 1012.9 |
| 20260903224506 | 23 | 263 | 11.3 | 22.5 | 0.00 | 0.00 | 0.00 | 63 | 1012.9 |
| 20260903223004 | 23 | 227 | 8.0 | 19.3 | 0.00 | 0.00 | 0.00 | 63 | 1013.0 |
| 20260903221503 | 23 | 188 | 6.4 | 19.3 | 0.00 | 0.00 | 0.00 | 63 | 1013.1 |
| 20260903220002 | 23 | 242 | 4.8 | 16.1 | 0.00 | 0.00 | 0.00 | 63 | 1013.3 |
| 20260903214501 | 23 | 161 | 3.2 | 17.7 | 0.00 | 0.00 | 0.00 | 63 | 1013.3 |
| 20260903213058 | 23 | 254 | 6.4 | 19.3 | 0.00 | 0.00 | 0.00 | 62 | 1013.3 |
| 20260903211557 | 23 | 181 | 4.8 | 14.5 | 0.00 | 0.00 | 0.00 | 62 | 1013.5 |
| 20260903210059 | 23 | 171 | 8.0 | 25.7 | 0.00 | 0.00 | 0.00 | 62 | 1013.9 |
| 20260903204550 | 23 | 252 | 6.4 | 22.5 | 0.00 | 0.00 | 0.00 | 62 | 1013.9 |
| 20260903203050 | 22 | 194 | 6.4 | 19.3 | 0.00 | 0.00 | 0.00 | 62 | 1014.0 |
| 20260903201543 | 23 | 153 | 8.0 | 22.5 | 0.00 | 0.00 | 0.00 | 62 | 1014.1 |
| 20260903200039 | 22 | 182 | 4.8 | 24.1 | 0.00 | 0.00 | 0.00 | 63 | 1014.2 |
| 20260903194535 | 21 | 240 | 3.2 | 16.1 | 0.00 | 0.00 | 0.00 | 66 | 1014.4 |
| 20260903193033 | 21 | 165 | 4.8 | 12.9 | 0.00 | 0.00 | 0.00 | 67 | 1014.6 |
| 20260903191532 | 21 | 13 | 3.2 | 19.3 | 0.00 | 0.00 | 0.00 | 66 | 1014.7 |
| 20260903190031 | 21 | 13 | 4.8 | 20.9 | 0.00 | 0.00 | 0.00 | 66 | 1014.9 |
| 20260903184529 | 21 | 239 | 6.4 | 19.3 | 0.00 | 0.00 | 0.00 | 65 | 1015.1 |
| 20260903183029 | 22 | 175 | 8.0 | 14.5 | 0.00 | 0.00 | 0.00 | 64 | 1015.1 |
| 20260903181526 | 22 | 217 | 6.4 | 16.1 | 0.00 | 0.00 | 0.00 | 65 | 1015.1 |
| 20260903180031 | 22 | 194 | 6.4 | 14.5 | 0.00 | 0.00 | 0.00 | 66 | 1015.0 |
| 20260903174521 | 21 | 186 | 3.2 | 9.7 | 0.00 | 0.00 | 0.00 | 69 | 1015.1 |
| 20260903173017 | 20 | 242 | 1.6 | 11.3 | 0.00 | 0.00 | 0.00 | 71 | 1015.2 |
| 20260903171524 | 20 | 174 | 1.6 | 14.5 | 0.00 | 0.00 | 0.00 | 74 | 1015.2 |
| 20260903170026 | 18 | 141 | 4.8 | 16.1 | 0.00 | 0.00 | 0.00 | 75 | 1015.3 |
| 20260903164507 | 18 | 138 | 3.2 | 14.5 | 0.00 | 0.00 | 0.00 | 77 | 1015.5 |
| 20260903163007 | 18 | 113 | 3.2 | 9.7 | 0.00 | 0.00 | 0.00 | 78 | 1015.5 |
| 20260903161501 | 17 | 182 | 1.6 | 9.7 | 0.00 | 0.00 | 0.00 | 79 | 1015.6 |
| 20260903160100 | 17 | 186 | 4.8 | 11.3 | 0.00 | 0.00 | 0.00 | 80 | 1015.7 |
| 20260903154558 | 16 | 147 | 3.2 | 12.9 | 0.00 | 0.00 | 0.00 | 79 | 1015.8 |
| 20260903153057 | 16 | 132 | 0.0 | 12.9 | 0.00 | 0.00 | 0.00 | 80 | 1015.9 |
| 20260903151557 | 16 | 153 | 3.2 | 14.5 | 0.00 | 0.00 | 0.00 | 80 | 1015.8 |
| 20260903150110 | 16 | 163 | 4.8 | 12.9 | 0.00 | 0.00 | 0.00 | 80 | 1015.8 |
| 20260903144601 | 16 | 141 | 6.4 | 14.5 | 0.00 | 0.00 | 0.00 | 81 | 1015.8 |
| 20260903143056 | 16 | 163 | 3.2 | 16.1 | 0.00 | 0.00 | 0.00 | 81 | 1015.8 |
| 20260903141554 | 16 | 153 | 6.4 | 14.5 | 0.00 | 0.00 | 0.00 | 81 | 1015.6 |
| 20260903140053 | 16 | 152 | 1.6 | 12.9 | 0.00 | 0.00 | 0.00 | 81 | 1015.6 |
| 20260903134603 | 16 | 119 | 3.2 | 11.3 | 0.00 | 0.00 | 0.00 | 81 | 1015.4 |
| 20260903133051 | 16 | 139 | 3.2 | 12.9 | 0.00 | 0.00 | 0.00 | 80 | 1015.3 |
| 20260903131550 | 16 | 72 | 1.6 | 11.3 | 0.00 | 0.00 | 0.00 | 81 | 1015.4 |
| 20260903130053 | 16 | 137 | 4.8 | 11.3 | 0.00 | 0.00 | 0.00 | 80 | 1015.4 |
| 20260903124648 | 16 | 133 | 3.2 | 11.3 | 0.00 | 0.00 | 0.00 | 80 | 1015.6 |
| 20260903123048 | 16 | 159 | 3.2 | 14.5 | 0.00 | 0.00 | 0.00 | 80 | 1015.5 |
| 20260903121552 | 16 | 126 | 3.2 | 11.3 | 0.00 | 0.00 | 0.00 | 80 | 1015.5 |
| 20260903120053 | 16 | 155 | 3.2 | 11.3 | 0.00 | 0.00 | 0.00 | 80 | 1015.6 |
| 20260903114543 | 16 | 179 | 1.6 | 11.3 | 0.00 | 0.00 | 0.00 | 79 | 1015.6 |
| 20260903113047 | 16 | 188 | 3.2 | 14.5 | 0.00 | 0.00 | 0.00 | 79 | 1015.8 |
| 20260903111540 | 16 | 130 | 0.0 | 12.9 | 0.00 | 0.00 | 0.00 | 80 | 1015.9 |
| 20260903110040 | 16 | 124 | 3.2 | 9.7 | 0.00 | 0.00 | 0.00 | 80 | 1015.9 |
| 20260903104539 | 16 | 153 | 3.2 | 11.3 | 0.00 | 0.00 | 0.00 | 80 | 1015.9 |
| 20260903103038 | 16 | 139 | 3.2 | 11.3 | 0.00 | 0.00 | 0.00 | 80 | 1015.9 |
| 20260903101538 | 16 | 143 | 3.2 | 11.3 | 0.00 | 0.00 | 0.00 | 80 | 1016.0 |
| 20260903100037 | 16 | 218 | 1.6 | 8.0 | 0.00 | 0.00 | 0.00 | 79 | 1015.9 |
| 20260903094542 | 16 | 196 | 0.0 | 9.7 | 0.00 | 0.00 | 0.00 | 79 | 1015.9 |
| 20260903093034 | 16 | 147 | 1.6 | 12.9 | 0.00 | 0.00 | 0.00 | 78 | 1016.0 |
| 20260903091532 | 16 | 194 | 1.6 | 8.0 | 0.00 | 0.00 | 0.00 | 76 | 1016.3 |
| 20260903090030 | 16 | 164 | 0.0 | 11.3 | 0.00 | 0.00 | 0.00 | 75 | 1016.3 |
| 20260903084539 | 16 | 150 | 1.6 | 8.0 | 0.00 | 0.00 | 0.00 | 74 | 1016.2 |
| 20260903083027 | 16 | 133 | 1.6 | 8.0 | 0.00 | 0.00 | 0.00 | 73 | 1016.2 |
| 20260903081526 | 16 | 157 | 0.0 | 9.7 | 0.00 | 0.00 | 0.00 | 72 | 1016.2 |
| 20260903080024 | 16 | 159 | 1.6 | 4.8 | 0.00 | 0.00 | 0.00 | 71 | 1016.2 |
| 20260903074522 | 17 | 174 | 1.6 | 11.3 | 0.00 | 0.00 | 0.00 | 71 | 1016.1 |
| 20260903073021 | 17 | 145 | 3.2 | 11.3 | 0.00 | 0.00 | 0.00 | 70 | 1016.2 |
| 20260903071519 | 17 | 125 | 1.6 | 9.7 | 0.00 | 0.00 | 0.00 | 69 | 1016.1 |
| 20260903070016 | 17 | 142 | 1.6 | 6.4 | 0.00 | 0.00 | 0.00 | 68 | 1016.1 |
| 20260903064515 | 17 | 140 | 1.6 | 9.7 | 0.00 | 0.00 | 0.00 | 66 | 1016.1 |
| 20260903063014 | 18 | 158 | 0.0 | 6.4 | 0.00 | 0.00 | 0.00 | 64 | 1016.1 |
| 20260903061519 | 18 | 130 | 0.0 | 11.3 | 0.00 | 0.00 | 0.00 | 63 | 1016.0 |
| 20260903060015 | 18 | 148 | 0.0 | 9.7 | 0.00 | 0.00 | 0.00 | 62 | 1015.9 |
| 20260903054514 | 18 | 264 | 3.2 | 14.5 | 0.00 | 0.00 | 0.00 | 61 | 1015.9 |
| 20260903053022 | 19 | 221 | 4.8 | 11.3 | 0.00 | 0.00 | 0.00 | 60 | 1016.0 |
| 20260903051512 | 20 | 240 | 1.6 | 9.7 | 0.00 | 0.00 | 0.00 | 60 | 1016.1 |
| 20260903050011 | 20 | 239 | 1.6 | 11.3 | 0.00 | 0.00 | 0.00 | 59 | 1016.2 |
| 20260903044512 | 20 | 184 | 1.6 | 8.0 | 0.00 | 0.00 | 0.00 | 59 | 1016.2 |
| 20260903043024 | 21 | 202 | 0.0 | 6.4 | 0.00 | 0.00 | 0.00 | 58 | 1016.2 |
| 20260903041510 | 21 | 171 | 0.0 | 4.8 | 0.00 | 0.00 | 0.00 | 57 | 1016.0 |
| 20260903040009 | 21 | 299 | 0.0 | 6.4 | 0.00 | 0.00 | 0.00 | 55 | 1015.8 |
| 20260903034508 | 21 | 227 | 0.0 | 4.8 | 0.00 | 0.00 | 0.00 | 53 | 1015.6 |
| 20260903033007 | 22 | 192 | 1.6 | 11.3 | 0.00 | 0.00 | 0.00 | 52 | 1015.4 |
| 20260903031506 | 22 | 175 | 0.0 | 9.7 | 0.00 | 0.00 | 0.00 | 50 | 1015.3 |
| 20260903030007 | 22 | 169 | 0.0 | 8.0 | 0.00 | 0.00 | 0.00 | 49 | 1015.2 |
| 20260903024505 | 23 | 201 | 3.2 | 12.9 | 0.00 | 0.00 | 0.00 | 48 | 1015.2 |